Погода в Ла-Тюиле

Италия     45°42′58″N   6°56′52″E
темп.,
°C
ветер,
м/с
пор.,
м/с
влажн.,
%
обл.,
%
осадки,
мм/ч
давл.,
гПа
погр.,
м
27 октября, ср
ср2723:00−1св11778 0.0 102610
02:00−2в117617 0.0 102610
05:00−1всв1179100 0.0 102610
08:00−2всв2184100 0.0 102711
11:00+4в22622 0.0 1025296
14:00+7в22533 0.0 1023653
17:00+6всв22590 0.0 1022470
20:000всв22873 0.0 102511
28 октября, чт
чт2823:00−1всв22934 0.0 102713
02:00−2всв21905 0.0 102812
05:00−3всв117197 0.0 102711
08:00−2всв116282 0.0 102611
11:00+3в2240100 0.0 1023215
14:00+7в2335100 0.0 1020423
17:00+6всв234620 0.0 1018258
20:00−1в227893 0.0 102215
29 октября, пт
пт2923:00−3всв228212 0.0 102421
02:00−3в327396 0.0 102331
05:00−3в3264100 0.0 102340
08:00−4всв2261100 0.0 102232
11:00+2в334696 0.0 1019258
14:00+6в3447100 0.0 1015646
17:00+4в3463100 0.0 1014296
20:00−1в3386100 0.0 101939
30 октября, сб
сб3023:00−2всв229638 0.0 102125
02:00−3всв2210092 0.0 102228
05:00−1в2297100 0.0 1021176
08:00−2в2297100 0.0 1021181
11:00−1в2390100 0.0 1021245
14:00+4в3470100 0.0 1016671
17:00+2в3479100 0.0 1017542
20:000в3499100 0.0 1020173
31 октября, вс
вс3123:00−1в3399100 0.1 1020155
02:00−1в3399100 0.3 1019138
04:00−1в3399100 0.9 1017126
07:00−1в3399100 7.1 1017140
10:00−1в33100100 2.7 1017129
13:000всв22100100 3.0 1016138
16:00−1всв11100100 0.3 1016100
19:00−1всв12100100 1.1 1015152